Regional Weather Roundup
Issued by NWS

Home | Current Version | Previous Version | Graphics & Text | Print | Product List | Glossary On
Versions: 1 2 3 4 5 6 7 8 9 10 11 12 13 14 15 16 17 18 19 20 21 22 23 24 25 26 27 28 29 30 31 32 33 34 35 36 37 38 39 40 41 42 43 44 45 46 47 48 49 50
000
ASUS43 KLSX 232307
RWRMO

WEATHER SUMMARY FOR MISSOURI
NATIONAL WEATHER SERVICE SPRINGFIELD MO
600 PM CDT WED MAY 23 2018

NOTE: "FAIR" INDICATES FEW OR NO CLOUDS BELOW 12,000 FEET WITH NO
       SIGNIFICANT WEATHER AND/OR OBSTRUCTIONS TO VISIBILITY.
       CURRENT SKY AND/OR WEATHER CONDITIONS ARE NOT AVAILABLE FOR
       CHILLICOTHE AND FARMINGTON.

MOZ001>031-035>038-043-044-053-054-240000-
...NORTHERN AND WESTERN MISSOURI...

CITY           SKY/WX    TMP DP  RH WIND       PRES   REMARKS
KANSAS CTY INT MOSUNNY   86  64  47 S13       30.02F
KANSAS C DTWN  SUNNY     88  63  43 SE10G21   30.01F
LEE`S SUMMIT   MOSUNNY   87  65  47 SE9       30.04F
ST JOSEPH      SUNNY     90  62  39 S12G23    30.01F HX  90
CHILLICOTHE      N/A     88  65  46 VRB7G20   30.04F HX  90
KIRKSVILLE     SUNNY    N/A N/A N/A SE13      30.08F

$$
MOZ066>068-077>081-088>096-101>105-240000-
...SOUTHWEST MISSOURI...

CITY           SKY/WX    TMP DP  RH WIND       PRES   REMARKS
SPRINGFIELD    LGT RAIN  70  65  84 CALM      30.14R
JOPLIN         LGT RAIN  73  70  90 SE8       30.08R
BRANSON        CLOUDY    68  66  94 CALM      30.14S

$$
MOZ032>034-039>042-045>050-055>058-069>072-240000-
...CENTRAL MISSOURI...

CITY           SKY/WX    TMP DP  RH WIND       PRES   REMARKS
COLUMBIA       SUNNY     85  66  53 E9        30.08S
JEFFERSON CITY MOSUNNY   86  66  51 E10       30.06S
ROLLA          PTSUNNY   83  67  58 E9        30.11R
SEDALIA        SUNNY     86  69  56 SE13      30.07S HX  90
WHITEMAN AFB   MOSUNNY   85  68  56 SE8       30.02S
WARRENSBURG    SUNNY     82  64  54 SE9       30.05R
OSAGE BEACH    CLOUDY    84  69  60 E5        30.09R

$$
MOZ051-052-059>065-240000-
...EAST CENTRAL MISSOURI...

CITY           SKY/WX    TMP DP  RH WIND       PRES   REMARKS
ST LOUIS INTL  MOSUNNY   85  64  49 E6        30.09F
SPIRIT OF STL  MOSUNNY   85  64  49 E6        30.08S
ST CHARLES     SUNNY     85  66  53 E6        30.08S

$$
MOZ072>076-082>087-097>100-106>115-240000-
...SOUTH CENTRAL AND SOUTHEAST MISSOURI...

CITY           SKY/WX    TMP DP  RH WIND       PRES   REMARKS
CAPE GIRARDEAU FAIR      86  63  45 NE9       30.06S
FARMINGTON     MOSUNNY   82  65  56 E5        30.11R
POPLAR BLUFF   FAIR      85  64  49 NE6       30.06S
WEST PLAINS    TSTM      71  64  78 S9G31     30.14R

$$




USA.gov is the U.S. government's official web portal to all federal, state and local government web resources and services.